Flag for U.S.A. Weather past 2 weeks in Corvallis, Oregon, U.S.A.

Now
N/A

More clouds than sun.


Feels Like: N/A
Forecast: 38 / 50 °F
Wind: 8 mph from South

Location: Corvallis Municipal

Current Time: Feb 1, 2015 at 3:24:51 PM

Latest Report: Feb 1, 2015 at 2:55 PM


Visibility: 10 mi

Pressure: 30.12 "Hg

Humidity: N/A

Dew point: N/A

Location of CorvallisLocation

Historic Weather in Corvallis — Graph

°F

Corvallis temperature yesterday

Maximum temperature yesterday: 43 °F (at 3:35 PM)
Minimum temperature yesterday: 36 °F (at 7:15 AM)
Average temperature yesterday: 39 °F

Past Weeks' High & Low Weather Summary

 TemperatureHumidityPressure
High63 °F (Jan 17, 10:55 PM)100% (Jan 19, 9:35 AM)30.49 "Hg (Jan 19, 9:35 AM)
Low34 °F (Jan 20, 9:55 PM)51% (Jan 30, 3:15 PM)29.80 "Hg (Jan 17, 8:55 PM)
Average45 °F88%30.25 "Hg
* Reported Jan 17 2:15 PM — Feb 1 2:15 PM, Corvallis, Weather by CustomWeather, © 2014

Note: Actual official high and low records may vary slightly from our data, if they occured in-between our weather recording intervals... More about our weather records

Advertising

Corvallis weather history for previous 24 hours

 ConditionsComfort  
Time TempWeatherWind HumidityBarometerVisibility
2:15 PM
Feb 1
50 °FOvercast.7 mph88%30.12 "Hg10 mi
1:55 PM48 °FOvercast.6 mph94%30.13 "Hg10 mi
1:15 PM48 °FOvercast.5 mph87%30.14 "Hg8 mi
12:55 PM46 °FOvercast.No wind93%30.15 "Hg7 mi
12:35 PM46 °FMore clouds than sun.No wind87%30.15 "Hg6 mi
12:15 PM46 °FMostly cloudy.No wind87%30.15 "Hg5 mi
11:55 AM46 °FCloudy.No wind87%30.15 "Hg5 mi
11:35 AM46 °FBroken clouds.3 mph87%30.16 "Hg4 mi
11:15 AM45 °FMostly cloudy.No wind81%30.17 "Hg3 mi
10:55 AM45 °FOvercast.6 mph81%30.17 "Hg4 mi
10:35 AM45 °FLow clouds.3 mph81%30.17 "Hg4 mi
10:15 AM45 °FMore clouds than sun.6 mph81%30.17 "Hg3 mi
9:55 AM45 °FMostly cloudy.3 mph81%30.15 "Hg2 mi
9:35 AM45 °FLow clouds.No wind81%30.16 "Hg3 mi
9:15 AM43 °FMostly cloudy.6 mph87%30.14 "Hg2 mi
8:55 AM43 °FLow clouds.No wind87%30.15 "Hg2 mi
8:35 AM43 °FMostly cloudy.3 mph81%30.15 "Hg3 mi
8:15 AM43 °FLow clouds.3 mph87%30.14 "Hg3 mi
7:55 AM43 °FMostly cloudy.6 mph87%30.13 "Hg2 mi
7:35 AM43 °FMostly cloudy.No wind87%30.12 "Hg3 mi
7:15 AM43 °FMostly cloudy.No wind81%30.14 "Hg3 mi
6:55 AM43 °FOvercast.5 mph81%30.14 "Hg3 mi
6:35 AM43 °FMostly cloudy.5 mph81%30.14 "Hg3 mi
6:15 AM41 °FMostly cloudy.5 mph87%30.11 "Hg2 mi
5:55 AM41 °FOvercast.No wind87%30.13 "Hg2 mi
5:35 AM41 °FMostly cloudy.No wind87%30.14 "Hg2 mi
4:55 AM41 °FLow clouds.6 mph87%30.13 "Hg0 mi
4:35 AM41 °FLow clouds.5 mph87%30.12 "Hg0 mi
4:15 AM41 °FLow clouds.3 mph87%30.12 "Hg0 mi
3:55 AM41 °FLow clouds.5 mph87%30.13 "Hg0 mi
3:35 AM43 °FLow clouds.No wind81%30.13 "Hg1 mi
3:15 AM41 °FLow clouds.No wind87%30.14 "Hg1 mi
2:55 AM41 °FLow clouds.No wind87%30.15 "Hg0 mi
2:35 AM41 °FLow clouds.No wind87%30.15 "Hg0 mi
2:15 AM41 °FLow clouds.No wind87%30.15 "Hg0 mi
1:55 AM41 °FLow clouds.No wind87%30.14 "Hg0 mi
1:35 AM41 °FLow clouds.No wind87%30.14 "Hg1 mi
1:15 AM43 °FLow clouds.No wind81%30.14 "Hg0 mi
12:55 AM43 °FLow clouds.No wind81%30.15 "Hg0 mi
12:35 AM43 °FLow clouds.6 mph81%30.11 "Hg0 mi
12:15 AM43 °FLow clouds.No wind81%30.13 "Hg0 mi
11:55 PM
Jan 31
43 °FLow clouds.3 mph81%30.13 "Hg0 mi
11:35 PM41 °FLow clouds.5 mph87%30.13 "Hg0 mi
11:15 PM41 °FLow clouds.3 mph87%30.13 "Hg0 mi
10:55 PM41 °FLow clouds.No wind87%30.12 "Hg0 mi
10:35 PM41 °FLow clouds.No wind87%30.12 "Hg0 mi
10:15 PM41 °FLow clouds.No wind87%30.12 "Hg0 mi
9:55 PM41 °FLow clouds.3 mph87%30.11 "Hg0 mi
9:35 PM41 °FLow clouds.No wind87%30.11 "Hg0 mi
9:15 PM41 °FLow clouds.5 mph87%30.12 "Hg0 mi
8:55 PM41 °FLow clouds.3 mph87%30.12 "Hg0 mi
8:35 PM39 °FLow clouds.3 mph93%30.12 "Hg1 mi
8:15 PM39 °FClear.3 mph87%30.13 "Hg3 mi
7:55 PM39 °FClear.3 mph93%30.13 "Hg3 mi
7:35 PM39 °FClear.No wind87%30.13 "Hg3 mi
7:15 PM39 °FPassing clouds.No wind93%30.14 "Hg3 mi
6:55 PM41 °FLow clouds.No wind87%30.14 "Hg4 mi
6:35 PM41 °FLow clouds.No wind87%30.15 "Hg4 mi
6:15 PM41 °FLow clouds.No wind87%30.14 "Hg4 mi
5:55 PM41 °FLow clouds.3 mph87%30.14 "Hg4 mi
5:35 PM41 °FLow clouds.No wind87%30.14 "Hg5 mi
5:15 PM41 °FLow clouds.3 mph87%30.14 "Hg5 mi
4:55 PM41 °FLow clouds.No wind87%30.14 "Hg5 mi
4:35 PM43 °FLow clouds.No wind87%30.14 "Hg5 mi
4:15 PM41 °FLow clouds.No wind93%30.14 "Hg5 mi
3:55 PM41 °FLow clouds.No wind93%30.14 "Hg6 mi
3:35 PM43 °FLow clouds.5 mph81%30.15 "Hg7 mi
3:15 PM41 °FLow clouds.No wind87%30.15 "Hg7 mi
Weather by CustomWeather, © 2014

See weather overviewHow to use our weather pages